When you browse on this site, cookies collect data to enhance your experience and personalize the content and advertising you see.
Visit our Privacy Policy to learn more. By continuing to use the site, you agree to this use of cookies and data.
  • In Hungary
  • List of Countries
  • For 7 days
  • Water Temperature
  • Weather Map
  • News
  • Weather Widgets
  • user-avatar
    Login

    Hourly Weather Shaitli

    Today, 18 October, Friday

    Time Temperature Precipitation Wind Pressure Humidity
    00:00 +8°C° 0 mm 1 mps 614 mmHg 58%
    01:00 +8°C° 0 mm 1 mps 613 mmHg 59%
    02:00 +7°C° 0 mm 1 mps 613 mmHg 60%
    03:00 +7°C° 0 mm 1 mps 613 mmHg 60%
    04:00 +7°C° 0 mm 1 mps 613 mmHg 60%
    05:00 +7°C° 0 mm 1 mps 613 mmHg 60%
    06:00 +8°C° 0 mm 1 mps 613 mmHg 60%
    07:00 +10°C° 0 mm 1 mps 614 mmHg 54%
    08:00 +13°C° 0 mm 1 mps 615 mmHg 47%
    09:00 +14°C° 0 mm 0 mps 616 mmHg 41%
    10:00 +15°C° 0 mm 0 mps 616 mmHg 38%
    11:00 +18°C° 0 mm 1 mps 616 mmHg 34%
    12:00 +19°C° 0 mm 1 mps 616 mmHg 31%
    13:00 +19°C° 0 mm 1 mps 616 mmHg 32%
    14:00 +19°C° 0 mm 1 mps 616 mmHg 33%
    15:00 +19°C° 0 mm 1 mps 615 mmHg 34%
    16:00 +15°C° 0 mm 1 mps 614 mmHg 40%
    17:00 +13°C° 0 mm 1 mps 614 mmHg 47%
    18:00 +11°C° 0 mm 1 mps 613 mmHg 53%
    19:00 +11°C° 0 mm 1 mps 613 mmHg 52%
    20:00 +10°C° 0 mm 1 mps 613 mmHg 50%
    21:00 +10°C° 0 mm 1 mps 613 mmHg 49%
    22:00 +10°C° 0 mm 1 mps 613 mmHg 49%
    23:00 +9°C° 0 mm 1 mps 612 mmHg 49%

    Tomorrow, 19 October, Saturday

    Time Temperature Precipitation Wind Pressure Humidity
    00:00 +9°C° 0 mm 1 mps 612 mmHg 49%
    01:00 +9°C° 0 mm 1 mps 612 mmHg 50%
    02:00 +9°C° 0 mm 1 mps 612 mmHg 51%
    03:00 +8°C° 0 mm 1 mps 612 mmHg 52%
    04:00 +8°C° 0 mm 1 mps 612 mmHg 52%
    05:00 +8°C° 0 mm 1 mps 612 mmHg 52%
    06:00 +8°C° 0 mm 1 mps 612 mmHg 52%
    07:00 +11°C° 0 mm 1 mps 613 mmHg 47%
    08:00 +13°C° 0 mm 1 mps 614 mmHg 43%
    09:00 +14°C° 0 mm 0 mps 616 mmHg 39%
    10:00 +16°C° 0 mm 1 mps 616 mmHg 38%
    11:00 +18°C° 0 mm 1 mps 616 mmHg 38%
    12:00 +19°C° 0 mm 1 mps 616 mmHg 38%
    13:00 +18°C° 0.1 mm 1 mps 616 mmHg 40%
    14:00 +18°C° 0.1 mm 1 mps 615 mmHg 43%
    15:00 +16°C° 0.1 mm 1 mps 615 mmHg 46%
    16:00 +14°C° 0.1 mm 1 mps 615 mmHg 54%
    17:00 +13°C° 0.1 mm 1 mps 614 mmHg 61%
    18:00 +10°C° 0.1 mm 0 mps 614 mmHg 69%
    19:00 +9°C° 0 mm 0 mps 614 mmHg 71%
    20:00 +9°C° 0 mm 0 mps 614 mmHg 73%
    21:00 +8°C° 0 mm 0 mps 614 mmHg 75%
    22:00 +8°C° 0 mm 0 mps 614 mmHg 77%
    23:00 +8°C° 0 mm 0 mps 614 mmHg 78%

    Day after tomorrow, 20 October, Sunday

    Time Temperature Precipitation Wind Pressure Humidity
    00:00 +7°C° 0 mm 0 mps 614 mmHg 80%
    01:00 +7°C° 0 mm 0 mps 614 mmHg 80%
    02:00 +7°C° 0 mm 0 mps 613 mmHg 81%
    03:00 +8°C° 0 mm 1 mps 613 mmHg 81%
    04:00 +7°C° 0 mm 1 mps 613 mmHg 81%
    05:00 +7°C° 0 mm 1 mps 614 mmHg 80%
    06:00 +7°C° 0 mm 1 mps 614 mmHg 80%
    07:00 +9°C° 0 mm 1 mps 615 mmHg 73%
    08:00 +12°C° 0 mm 1 mps 616 mmHg 65%
    09:00 +13°C° 0 mm 0 mps 617 mmHg 58%
    10:00 +15°C° 0.1 mm 1 mps 617 mmHg 56%
    11:00 +15°C° 0.1 mm 1 mps 617 mmHg 54%
    12:00 +16°C° 0.1 mm 2 mps 618 mmHg 52%
    13:00 +16°C° 0.4 mm 1 mps 617 mmHg 56%
    14:00 +15°C° 0.4 mm 1 mps 617 mmHg 59%
    15:00 +15°C° 0.4 mm 1 mps 616 mmHg 63%
    16:00 +13°C° 0.3 mm 1 mps 616 mmHg 70%
    17:00 +12°C° 0.3 mm 1 mps 616 mmHg 77%
    18:00 +10°C° 0.3 mm 0 mps 615 mmHg 84%
    19:00 +9°C° 0 mm 0 mps 615 mmHg 85%
    20:00 +8°C° 0 mm 0 mps 615 mmHg 87%
    21:00 +8°C° 0 mm 0 mps 615 mmHg 88%
    22:00 +8°C° 0 mm 0 mps 615 mmHg 89%
    23:00 +8°C° 0 mm 1 mps 615 mmHg 91%

    21 October, Monday

    Time Temperature Precipitation Wind Pressure Humidity
    00:00 +8°C° 0 mm 1 mps 615 mmHg 92%
    01:00 +8°C° 0 mm 1 mps 615 mmHg 92%
    02:00 +8°C° 0 mm 1 mps 615 mmHg 92%
    03:00 +8°C° 0 mm 1 mps 614 mmHg 91%
    04:00 +8°C° 0 mm 1 mps 614 mmHg 91%
    05:00 +7°C° 0 mm 1 mps 614 mmHg 90%
    06:00 +7°C° 0 mm 1 mps 614 mmHg 89%
    07:00 +9°C° 0 mm 1 mps 615 mmHg 82%
    08:00 +11°C° 0 mm 1 mps 616 mmHg 75%
    09:00 +12°C° 0 mm 1 mps 617 mmHg 68%
    10:00 +13°C° 0 mm 1 mps 617 mmHg 64%
    11:00 +14°C° 0 mm 2 mps 617 mmHg 61%
    12:00 +15°C° 0 mm 2 mps 617 mmHg 58%
    13:00 +15°C° 0 mm 2 mps 617 mmHg 60%
    14:00 +15°C° 0 mm 2 mps 617 mmHg 61%
    15:00 +14°C° 0 mm 2 mps 617 mmHg 63%
    16:00 +13°C° 0 mm 1 mps 616 mmHg 72%
    17:00 +11°C° 0 mm 1 mps 615 mmHg 81%
    18:00 +9°C° 0 mm 1 mps 615 mmHg 90%
    19:00 +9°C° 0 mm 1 mps 615 mmHg 91%
    20:00 +8°C° 0 mm 1 mps 615 mmHg 91%
    21:00 +8°C° 0 mm 1 mps 614 mmHg 92%
    22:00 +8°C° 0 mm 1 mps 614 mmHg 92%
    23:00 +7°C° 0 mm 1 mps 614 mmHg 91%

    22 October, Tuesday

    Time Temperature Precipitation Wind Pressure Humidity
    00:00 +7°C° 0 mm 1 mps 614 mmHg 91%
    01:00 +7°C° 0 mm 1 mps 614 mmHg 90%
    02:00 +7°C° 0 mm 1 mps 614 mmHg 90%
    03:00 +7°C° 0 mm 1 mps 613 mmHg 89%
    04:00 +6°C° 0 mm 1 mps 613 mmHg 88%
    05:00 +6°C° 0 mm 1 mps 613 mmHg 86%
    06:00 +6°C° 0 mm 1 mps 613 mmHg 85%
    07:00 +8°C° 0 mm 1 mps 614 mmHg 77%
    08:00 +10°C° 0 mm 1 mps 615 mmHg 69%
    09:00 +12°C° 0 mm 1 mps 616 mmHg 60%
    10:00 +13°C° 0 mm 2 mps 616 mmHg 58%
    11:00 +14°C° 0 mm 2 mps 616 mmHg 55%
    12:00 +15°C° 0 mm 2 mps 616 mmHg 52%
    13:00 +15°C° 0 mm 2 mps 616 mmHg 53%
    14:00 +14°C° 0 mm 2 mps 616 mmHg 55%
    15:00 +14°C° 0 mm 2 mps 615 mmHg 56%
    16:00 +12°C° 0 mm 1 mps 614 mmHg 65%
    17:00 +11°C° 0 mm 1 mps 614 mmHg 75%
    18:00 +9°C° 0 mm 1 mps 613 mmHg 84%
    19:00 +8°C° 0 mm 1 mps 613 mmHg 85%
    20:00 +8°C° 0 mm 1 mps 613 mmHg 86%
    21:00 +7°C° 0 mm 1 mps 613 mmHg 86%
    22:00 +7°C° 0 mm 1 mps 612 mmHg 85%
    23:00 +7°C° 0 mm 1 mps 612 mmHg 83%

    23 October, Wednesday

    Time Temperature Precipitation Wind Pressure Humidity
    00:00 +6°C° 0 mm 1 mps 612 mmHg 82%
    01:00 +6°C° 0 mm 1 mps 612 mmHg 80%
    02:00 +6°C° 0 mm 1 mps 612 mmHg 78%
    03:00 +6°C° 0 mm 1 mps 612 mmHg 76%
    04:00 +6°C° 0 mm 1 mps 612 mmHg 73%
    05:00 +6°C° 0 mm 1 mps 612 mmHg 70%
    06:00 +6°C° 0 mm 1 mps 612 mmHg 67%
    07:00 +9°C° 0 mm 1 mps 613 mmHg 60%
    08:00 +11°C° 0 mm 1 mps 614 mmHg 53%
    09:00 +13°C° 0 mm 1 mps 615 mmHg 46%
    10:00 +14°C° 0 mm 1 mps 615 mmHg 45%
    11:00 +15°C° 0 mm 1 mps 615 mmHg 44%
    12:00 +16°C° 0 mm 1 mps 616 mmHg 43%
    13:00 +16°C° 0 mm 1 mps 615 mmHg 46%
    14:00 +15°C° 0 mm 1 mps 615 mmHg 49%
    15:00 +15°C° 0 mm 1 mps 615 mmHg 52%
    16:00 +13°C° 0.1 mm 1 mps 614 mmHg 62%
    17:00 +11°C° 0.1 mm 1 mps 614 mmHg 72%
    18:00 +9°C° 0.1 mm 1 mps 613 mmHg 83%
    19:00 +8°C° 0 mm 0 mps 613 mmHg 84%
    20:00 +7°C° 0 mm 0 mps 613 mmHg 85%
    21:00 +7°C° 0 mm 0 mps 613 mmHg 86%
    22:00 +6°C° 0 mm 0 mps 613 mmHg 86%
    23:00 +7°C° 0 mm 1 mps 613 mmHg 86%
    Show more